AKST,Max TemperatureF,Mean TemperatureF,Min TemperatureF,Max Dew PointF,MeanDew PointF,Min DewpointF,Max Humidity, Mean Humidity, Min Humidity, Max Sea Level PressureIn, Mean Sea Level PressureIn, Min Sea Level PressureIn, Max VisibilityMiles, Mean VisibilityMiles, Min VisibilityMiles, Max Wind SpeedMPH, Mean Wind SpeedMPH, Max Gust SpeedMPH,PrecipitationIn, CloudCover, Events, WindDirDegrees
2012-12-1,38,37,36,36,35,34,0,0,0,29.18,29.15,29.09,10,9,5,9,3,18,0.26,8,Rain,4
2012-12-2,40,37,34,37,35,32,0,0,0,29.29,29.13,29.04,10,9,5,18,7,24,0.33,8,Rain-Snow,124
2012-12-3,42,39,36,37,36,34,0,0,0,29.46,29.36,29.19,10,10,6,20,11,35,0.20,8,Rain,127
2012-12-4,39,37,35,36,35,33,0,0,0,29.45,29.24,29.02,10,9,2,12,3,17,0.36,7,Rain-Snow,123
2012-12-5,41,37,33,34,33,30,0,0,0,29.83,29.71,29.48,10,9,2,16,5,23,0.04,7,Rain-Snow,182
2012-12-6,41,37,33,36,33,27,0,0,0,29.84,29.75,29.59,10,8,1,17,6,23,0.11,7,Rain-Snow,142
2012-12-7,35,31,27,34,31,27,0,0,0,30.11,29.91,29.67,10,8,2,5,1,7,0.05,5,Snow,315
2012-12-8,35,32,28,34,30,26,0,0,0,30.19,30.11,29.91,10,8,1,10,4,14,0.00,6,Snow,117
2012-12-9,43,39,34,41,39,34,0,0,0,30.12,30.00,29.89,10,6,2,24,6,31,0.49,7,Rain-Snow,152
2012-12-10,46,43,40,45,42,37,0,0,0,30.11,29.80,29.39,10,7,1,13,4,23,0.39,8,Rain,165
2012-12-11,43,41,38,41,37,34,0,0,0,29.82,29.55,29.33,10,10,5,10,6,18,0.02,6,Rain,317
2012-12-12,39,36,32,40,36,31,0,0,0,29.91,29.79,29.60,10,9,6,17,7,22,0.01,7,Rain,143
2012-12-13,44,42,39,43,37,31,0,0,0,29.76,29.63,29.52,10,10,8,17,8,29,0.06,6,Rain,249
2012-12-14,43,37,31,39,37,30,0,0,0,29.75,29.44,29.06,10,8,4,24,12,36,0.33,8,Rain,145
2012-12-15,42,39,36,39,34,31,0,0,0,29.30,29.21,29.05,10,9,2,32,9,53,0.22,7,Rain-Snow,176
2012-12-16,35,34,32,34,32,25,0,0,0,29.30,29.27,29.21,10,7,1,13,2,21,0.39,6,Rain-Snow,122
2012-12-17,33,30,26,32,30,25,0,0,0,29.63,29.36,29.21,10,3,0,5,1,7,0.43,7,Fog-Snow,71
2012-12-18,36,31,26,31,28,25,0,0,0,29.67,29.50,29.17,10,7,2,23,8,41,0.02,7,Snow,110
2012-12-19,39,37,34,30,28,27,0,0,0,29.40,29.17,29.08,10,8,2,22,14,44,0.01,7,Snow,103
2012-12-20,39,38,36,27,23,21,0,0,0,29.70,29.54,29.42,10,10,10,12,5,21,0.00,6,,50
2012-12-21,36,35,33,26,19,16,0,0,0,29.75,29.72,29.69,10,10,5,13,7,25,0.00,5,Snow,56
2012-12-22,35,33,31,25,19,14,0,0,0,29.69,29.63,29.57,10,9,1,16,8,28,0.01,6,Snow,52
2012-12-23,33,28,23,21,16,12,0,0,0,29.96,29.78,29.64,10,10,10,12,3,20,0.00,5,,68
2012-12-24,31,29,27,20,16,14,0,0,0,30.05,29.97,29.84,10,10,10,10,5,15,0.00,5,,58
2012-12-25,38,37,35,26,21,17,0,0,0,29.83,29.73,29.68,10,10,10,16,6,25,T,5,,65
2012-12-26,35,29,23,25,22,19,0,0,0,29.93,29.85,29.74,10,10,10,5,0,7,0.00,7,,30
2012-12-27,38,35,32,34,32,25,0,0,0,29.91,29.81,29.78,10,8,2,21,11,30,0.27,8,Rain-Snow,122
2012-12-28,39,37,35,37,35,34,0,0,0,30.13,29.95,29.83,10,9,4,14,7,20,0.14,8,Rain,132
2012-12-29,41,39,37,37,35,32,0,0,0,30.21,30.16,30.09,10,10,10,10,6,14,T,8,,127
2012-12-30,43,42,40,38,33,30,0,0,0,30.11,29.97,29.82,10,10,6,21,14,26,0.02,8,Rain,124
2012-12-31,46,44,41,41,38,34,0,0,0,30.39,30.16,29.82,10,9,2,26,11,36,0.11,7,Rain,158